Time,TemperatureF,DewpointF,PressureIn,WindDirection,WindDirectionDegrees,WindSpeedMPH,WindSpeedGustMPH,Humidity,HourlyPrecipIn,Conditions,Clouds,dailyrainin,SoftwareType,DateUTC
2013-05-21 00:01:00,63.4,62.5,29.97,SSW,209,0.0,0.0,97,0.00,,,0.04,Wunderground v.1.15,2013-05-21 04:01:00,
2013-05-21 00:02:00,63.4,62.5,29.97,SSW,209,0.0,0.0,97,0.00,,,0.04,Wunderground v.1.15,2013-05-21 04:02:00,
2013-05-21 00:03:00,63.2,62.3,29.97,SSW,209,0.0,0.0,97,0.00,,,0.04,Wunderground v.1.15,2013-05-21 04:03:00,
2013-05-21 00:06:00,63.2,62.3,29.97,SSW,209,0.0,0.0,97,0.00,,,0.00,Wunderground v.1.15,2013-05-21 04:06:00,
2013-05-21 00:12:00,63.2,62.6,29.97,SSW,209,0.0,0.0,98,0.00,,,0.00,Wunderground v.1.15,2013-05-21 04:12:00,
2013-05-21 00:13:00,63.2,62.3,29.97,SSW,209,0.0,0.0,97,0.00,,,0.00,Wunderground v.1.15,2013-05-21 04:13:00,
2013-05-21 00:19:00,63.2,62.6,29.97,SSW,209,0.0,0.0,98,0.00,,,0.00,Wunderground v.1.15,2013-05-21 04:19:00,
2013-05-21 00:24:00,63.1,62.5,29.96,SSW,209,0.0,0.0,98,0.00,,,0.00,Wunderground v.1.15,2013-05-21 04:24:00,
2013-05-21 00:30:00,62.7,62.1,29.96,SSW,209,0.0,0.0,98,0.00,,,0.00,Wunderground v.1.15,2013-05-21 04:30:00,
2013-05-21 00:35:00,62.6,62.0,29.96,SSW,209,0.0,0.0,98,0.00,,,0.00,Wunderground v.1.15,2013-05-21 04:35:00,
2013-05-21 00:40:00,62.4,61.8,29.96,SSW,209,0.0,0.0,98,0.00,,,0.00,Wunderground v.1.15,2013-05-21 04:40:00,
2013-05-21 00:46:00,62.3,61.7,29.96,SSW,209,0.0,0.0,98,0.00,,,0.00,Wunderground v.1.15,2013-05-21 04:46:00,
2013-05-21 00:52:00,62.4,61.8,29.95,SSW,209,0.0,0.0,98,0.00,,,0.00,Wunderground v.1.15,2013-05-21 04:52:00,
2013-05-21 00:57:00,62.4,61.8,29.95,SSW,209,0.0,0.0,98,0.00,,,0.00,Wunderground v.1.15,2013-05-21 04:57:00,
2013-05-21 01:03:00,62.3,61.7,29.95,SSW,209,0.0,0.0,98,0.00,,,0.00,Wunderground v.1.15,2013-05-21 05:03:00,
2013-05-21 01:08:00,62.4,61.8,29.95,SSW,209,0.0,0.0,98,0.00,,,0.00,Wunderground v.1.15,2013-05-21 05:08:00,
2013-05-21 01:14:00,62.3,61.7,29.95,SSW,209,0.0,0.0,98,0.00,,,0.00,Wunderground v.1.15,2013-05-21 05:14:00,
2013-05-21 01:19:00,62.3,61.7,29.95,SSW,209,0.0,0.0,98,0.00,,,0.00,Wunderground v.1.15,2013-05-21 05:19:00,
2013-05-21 01:25:00,62.1,61.5,29.95,SSW,209,0.0,0.0,98,0.00,,,0.00,Wunderground v.1.15,2013-05-21 05:25:00,
2013-05-21 01:30:00,62.0,61.4,29.95,SSW,209,0.0,0.0,98,0.00,,,0.00,Wunderground v.1.15,2013-05-21 05:30:00,
2013-05-21 01:36:00,61.8,61.2,29.95,SSW,209,0.0,0.0,98,0.00,,,0.00,Wunderground v.1.15,2013-05-21 05:36:00,
2013-05-21 01:41:00,61.8,61.2,29.95,SSW,209,0.0,0.0,98,0.00,,,0.00,Wunderground v.1.15,2013-05-21 05:41:00,
2013-05-21 01:47:00,61.8,61.2,29.95,SSW,209,0.0,0.0,98,0.00,,,0.00,Wunderground v.1.15,2013-05-21 05:47:00,
2013-05-21 01:52:00,61.8,61.5,29.95,SSW,209,0.0,0.0,99,0.00,,,0.00,Wunderground v.1.15,2013-05-21 05:52:00,
2013-05-21 01:58:00,62.0,61.7,29.95,SSW,209,0.0,0.0,99,0.00,,,0.00,Wunderground v.1.15,2013-05-21 05:58:00,
2013-05-21 02:03:00,62.1,61.8,29.95,SSW,209,0.0,0.0,99,0.00,,,0.00,Wunderground v.1.15,2013-05-21 06:03:00,
2013-05-21 02:08:00,62.1,61.8,29.94,SSW,209,0.0,0.0,99,0.00,,,0.00,Wunderground v.1.15,2013-05-21 06:08:00,
2013-05-21 02:13:00,62.0,61.7,29.94,SSW,209,0.0,0.0,99,0.00,,,0.00,Wunderground v.1.15,2013-05-21 06:13:00,
2013-05-21 02:18:00,62.0,61.7,29.94,SSW,209,0.0,0.0,99,0.00,,,0.00,Wunderground v.1.15,2013-05-21 06:18:00,
2013-05-21 02:23:00,61.8,61.5,29.94,SSW,209,0.0,0.0,99,0.00,,,0.00,Wunderground v.1.15,2013-05-21 06:23:00,
2013-05-21 02:28:00,61.8,61.5,29.94,SSW,209,0.0,0.0,99,0.00,,,0.00,Wunderground v.1.15,2013-05-21 06:28:00,
2013-05-21 02:33:00,61.6,61.3,29.94,SSW,209,0.0,0.0,99,0.00,,,0.00,Wunderground v.1.15,2013-05-21 06:33:00,
2013-05-21 02:39:00,61.3,61.0,29.92,SSW,209,0.0,0.0,99,0.00,,,0.00,Wunderground v.1.15,2013-05-21 06:39:00,
2013-05-21 02:44:00,61.2,60.9,29.92,SSW,209,0.0,0.0,99,0.00,,,0.00,Wunderground v.1.15,2013-05-21 06:44:00,
2013-05-21 02:49:00,61.0,60.7,29.92,SSW,209,0.0,0.0,99,0.00,,,0.00,Wunderground v.1.15,2013-05-21 06:49:00,
2013-05-21 02:54:00,60.7,60.4,29.92,SSW,209,0.0,0.0,99,0.00,,,0.00,Wunderground v.1.15,2013-05-21 06:54:00,
2013-05-21 02:59:00,60.7,60.4,29.92,SSW,209,0.0,0.0,99,0.00,,,0.00,Wunderground v.1.15,2013-05-21 06:59:00,
2013-05-21 03:04:00,60.7,60.4,29.92,SSW,206,0.0,0.0,99,0.00,,,0.00,Wunderground v.1.15,2013-05-21 07:04:00,
2013-05-21 03:09:00,60.4,60.1,29.91,SSW,206,0.0,0.0,99,0.00,,,0.00,Wunderground v.1.15,2013-05-21 07:09:00,
2013-05-21 03:14:00,60.2,59.9,29.91,SSW,206,0.0,0.0,99,0.00,,,0.00,Wunderground v.1.15,2013-05-21 07:14:00,
2013-05-21 03:19:00,59.9,59.6,29.91,SSW,206,0.0,0.0,99,0.00,,,0.00,Wunderground v.1.15,2013-05-21 07:19:00,
2013-05-21 03:24:00,59.8,59.5,29.91,SSW,206,0.0,0.0,99,0.00,,,0.00,Wunderground v.1.15,2013-05-21 07:24:00,
2013-05-21 03:29:00,59.8,59.5,29.91,SSW,206,0.0,0.0,99,0.00,,,0.00,Wunderground v.1.15,2013-05-21 07:29:00,
2013-05-21 03:34:00,59.6,59.3,29.91,SSW,206,0.0,0.0,99,0.00,,,0.00,Wunderground v.1.15,2013-05-21 07:34:00,
2013-05-21 03:39:00,59.9,59.6,29.92,SSW,206,0.0,0.0,99,0.00,,,0.00,Wunderground v.1.15,2013-05-21 07:39:00,
2013-05-21 03:44:00,60.2,59.9,29.92,SSW,206,0.0,0.0,99,0.00,,,0.00,Wunderground v.1.15,2013-05-21 07:44:00,
2013-05-21 03:49:00,60.2,59.9,29.92,SSW,206,0.0,0.0,99,0.00,,,0.00,Wunderground v.1.15,2013-05-21 07:49:00,
2013-05-21 03:54:00,60.5,60.2,29.92,SSW,206,0.0,0.0,99,0.00,,,0.00,Wunderground v.1.15,2013-05-21 07:54:00,
2013-05-21 03:59:00,60.4,60.1,29.92,SSW,206,0.0,0.0,99,0.00,,,0.00,Wunderground v.1.15,2013-05-21 07:59:00,
2013-05-21 04:04:00,60.4,60.1,29.92,SSW,206,0.0,0.0,99,0.00,,,0.00,Wunderground v.1.15,2013-05-21 08:04:00,
2013-05-21 04:09:00,60.1,59.8,29.92,SSW,206,0.0,0.0,99,0.00,,,0.00,Wunderground v.1.15,2013-05-21 08:09:00,
2013-05-21 04:14:00,59.8,59.5,29.92,SSW,206,0.0,0.0,99,0.00,,,0.00,Wunderground v.1.15,2013-05-21 08:14:00,
2013-05-21 04:19:00,59.6,59.3,29.92,SSW,206,0.0,0.0,99,0.00,,,0.00,Wunderground v.1.15,2013-05-21 08:19:00,
2013-05-21 04:24:00,59.5,59.2,29.92,SSW,206,0.0,0.0,99,0.00,,,0.00,Wunderground v.1.15,2013-05-21 08:24:00,
2013-05-21 04:29:00,59.3,59.0,29.92,SSW,206,0.0,0.0,99,0.00,,,0.00,Wunderground v.1.15,2013-05-21 08:29:00,
2013-05-21 04:34:00,59.2,58.9,29.92,SSW,206,0.0,0.0,99,0.00,,,0.00,Wunderground v.1.15,2013-05-21 08:34:00,
2013-05-21 04:39:00,59.2,58.9,29.92,SSW,206,0.0,0.0,99,0.00,,,0.00,Wunderground v.1.15,2013-05-21 08:39:00,
2013-05-21 04:44:00,59.3,59.0,29.92,SSW,206,0.0,0.0,99,0.00,,,0.00,Wunderground v.1.15,2013-05-21 08:44:00,
2013-05-21 04:49:00,59.3,59.0,29.92,SSW,206,0.0,0.0,99,0.00,,,0.00,Wunderground v.1.15,2013-05-21 08:49:00,
2013-05-21 04:54:00,59.3,59.0,29.92,SSW,206,0.0,0.0,99,0.00,,,0.00,Wunderground v.1.15,2013-05-21 08:54:00,
2013-05-21 04:59:00,59.3,59.0,29.92,SSW,206,0.0,0.0,99,0.00,,,0.00,Wunderground v.1.15,2013-05-21 08:59:00,
2013-05-21 05:04:00,59.3,59.0,29.92,SSW,206,0.0,0.0,99,0.00,,,0.00,Wunderground v.1.15,2013-05-21 09:04:00,
2013-05-21 05:09:00,59.5,59.2,29.93,SSW,206,0.0,0.0,99,0.00,,,0.00,Wunderground v.1.15,2013-05-21 09:09:00,
2013-05-21 05:14:00,59.5,59.2,29.93,SSW,206,0.0,0.0,99,0.00,,,0.00,Wunderground v.1.15,2013-05-21 09:14:00,
2013-05-21 05:19:00,59.6,59.6,29.93,SSW,206,0.0,0.0,100,0.00,,,0.00,Wunderground v.1.15,2013-05-21 09:19:00,
2013-05-21 05:24:00,59.6,59.6,29.94,SSW,206,0.0,0.0,100,0.00,,,0.00,Wunderground v.1.15,2013-05-21 09:24:00,
2013-05-21 05:29:00,59.6,59.3,29.94,SSW,206,0.0,0.0,99,0.00,,,0.00,Wunderground v.1.15,2013-05-21 09:29:00,
2013-05-21 05:34:00,59.6,59.6,29.94,SSW,206,0.0,0.0,100,0.00,,,0.00,Wunderground v.1.15,2013-05-21 09:34:00,
2013-05-21 05:40:00,59.6,59.6,29.94,SSW,206,0.0,0.0,100,0.00,,,0.00,Wunderground v.1.15,2013-05-21 09:40:00,
2013-05-21 05:45:00,59.6,59.6,29.94,SSW,206,0.0,0.0,100,0.00,,,0.00,Wunderground v.1.15,2013-05-21 09:45:00,
2013-05-21 05:50:00,59.6,59.6,29.94,SSW,206,0.0,0.0,100,0.00,,,0.00,Wunderground v.1.15,2013-05-21 09:50:00,
2013-05-21 05:55:00,59.6,59.6,29.94,SSW,206,0.0,0.0,100,0.00,,,0.00,Wunderground v.1.15,2013-05-21 09:55:00,
2013-05-21 06:00:00,59.8,59.8,29.94,SSW,206,0.0,0.0,100,0.00,,,0.00,Wunderground v.1.15,2013-05-21 10:00:00,
2013-05-21 06:05:00,60.1,60.1,29.94,SSW,206,0.0,0.0,100,0.00,,,0.00,Wunderground v.1.15,2013-05-21 10:05:00,
2013-05-21 06:10:00,60.2,60.2,29.94,SSW,206,0.0,0.0,100,0.00,,,0.00,Wunderground v.1.15,2013-05-21 10:10:00,
2013-05-21 06:15:00,60.4,60.4,29.94,SSW,206,0.0,0.0,100,0.00,,,0.00,Wunderground v.1.15,2013-05-21 10:15:00,
2013-05-21 06:20:00,60.5,60.5,29.94,SSW,206,0.0,0.0,100,0.00,,,0.00,Wunderground v.1.15,2013-05-21 10:20:00,
2013-05-21 06:25:00,60.5,60.5,29.93,SSW,206,0.0,0.0,100,0.00,,,0.00,Wunderground v.1.15,2013-05-21 10:25:00,
2013-05-21 06:30:00,60.7,60.7,29.93,SSW,206,0.0,0.0,100,0.00,,,0.00,Wunderground v.1.15,2013-05-21 10:30:00,
2013-05-21 06:35:00,60.7,60.7,29.93,SSW,206,0.0,0.0,100,0.00,,,0.00,Wunderground v.1.15,2013-05-21 10:35:00,
2013-05-21 06:40:00,60.7,60.7,29.94,SSW,206,0.0,0.0,100,0.00,,,0.00,Wunderground v.1.15,2013-05-21 10:40:00,
2013-05-21 06:45:00,61.0,61.0,29.94,SSW,206,0.0,0.0,100,0.00,,,0.00,Wunderground v.1.15,2013-05-21 10:45:00,
2013-05-21 06:50:00,61.2,61.2,29.94,SSW,206,0.0,0.0,100,0.00,,,0.00,Wunderground v.1.15,2013-05-21 10:50:00,
2013-05-21 06:55:00,61.3,61.3,29.94,SSW,206,0.0,0.0,100,0.00,,,0.00,Wunderground v.1.15,2013-05-21 10:55:00,
2013-05-21 07:00:00,61.6,61.6,29.94,SSW,206,0.0,0.0,100,0.00,,,0.00,Wunderground v.1.15,2013-05-21 11:00:00,
2013-05-21 07:05:00,61.8,61.8,29.94,SSW,206,0.0,0.0,100,0.00,,,0.00,Wunderground v.1.15,2013-05-21 11:05:00,
2013-05-21 07:10:00,61.8,61.8,29.94,SSW,206,0.0,0.0,100,0.00,,,0.00,Wunderground v.1.15,2013-05-21 11:10:00,
2013-05-21 07:15:00,62.0,62.0,29.94,SSW,206,0.0,0.0,100,0.00,,,0.00,Wunderground v.1.15,2013-05-21 11:15:00,
2013-05-21 07:20:00,62.1,62.1,29.92,SSW,206,0.0,0.0,100,0.00,,,0.00,Wunderground v.1.15,2013-05-21 11:20:00,
2013-05-21 07:25:00,62.3,62.3,29.92,SSW,206,0.0,0.0,100,0.00,,,0.00,Wunderground v.1.15,2013-05-21 11:25:00,
2013-05-21 07:30:00,62.4,62.4,29.92,SSW,206,0.0,0.0,100,0.00,,,0.00,Wunderground v.1.15,2013-05-21 11:30:00,
2013-05-21 07:35:00,62.6,62.6,29.92,SSW,206,0.0,0.0,100,0.00,,,0.00,Wunderground v.1.15,2013-05-21 11:35:00,
2013-05-21 07:40:00,62.9,62.9,29.92,SSW,206,0.0,0.0,100,0.00,,,0.00,Wunderground v.1.15,2013-05-21 11:40:00,
2013-05-21 07:45:00,63.1,63.1,29.92,SSW,206,0.0,0.0,100,0.00,,,0.00,Wunderground v.1.15,2013-05-21 11:45:00,
2013-05-21 07:50:00,63.1,63.1,29.93,SSW,206,0.0,0.0,100,0.00,,,0.00,Wunderground v.1.15,2013-05-21 11:50:00,
2013-05-21 07:55:00,63.1,63.1,29.93,SSW,206,0.0,0.0,100,0.00,,,0.00,Wunderground v.1.15,2013-05-21 11:55:00,
2013-05-21 08:00:00,63.2,63.2,29.93,SSW,207,0.0,0.0,100,0.00,,,0.00,Wunderground v.1.15,2013-05-21 12:00:00,
2013-05-21 08:05:00,63.2,63.2,29.92,SSW,207,0.0,0.0,100,0.00,,,0.00,Wunderground v.1.15,2013-05-21 12:05:00,
2013-05-21 08:10:00,63.4,63.4,29.92,SSW,207,0.0,0.0,100,0.00,,,0.00,Wunderground v.1.15,2013-05-21 12:10:00,
2013-05-21 08:15:00,63.4,63.4,29.92,SSW,207,0.0,0.0,100,0.00,,,0.00,Wunderground v.1.15,2013-05-21 12:15:00,
2013-05-21 08:20:00,63.4,63.4,29.94,SSW,207,0.0,0.0,100,0.00,,,0.00,Wunderground v.1.15,2013-05-21 12:20:00,
2013-05-21 08:25:00,63.5,63.5,29.94,SSW,207,0.0,0.0,100,0.00,,,0.00,Wunderground v.1.15,2013-05-21 12:25:00,
2013-05-21 08:30:00,63.5,63.5,29.94,SSW,207,0.0,0.0,100,0.00,,,0.00,Wunderground v.1.15,2013-05-21 12:30:00,
2013-05-21 08:35:00,63.5,63.5,29.94,SSW,207,0.0,1.0,100,0.00,,,0.00,Wunderground v.1.15,2013-05-21 12:35:00,
2013-05-21 08:40:00,63.7,63.7,29.94,SSW,207,0.0,0.0,100,0.00,,,0.00,Wunderground v.1.15,2013-05-21 12:40:00,
2013-05-21 08:45:00,63.9,63.9,29.94,SSW,207,0.0,0.0,100,0.00,,,0.00,Wunderground v.1.15,2013-05-21 12:45:00,
2013-05-21 08:50:00,64.2,64.2,29.93,SSW,207,0.0,0.0,100,0.00,,,0.00,Wunderground v.1.15,2013-05-21 12:50:00,
2013-05-21 08:55:00,64.5,64.5,29.93,SSW,207,0.0,0.0,100,0.00,,,0.00,Wunderground v.1.15,2013-05-21 12:55:00,
2013-05-21 09:01:00,64.8,64.8,29.93,SW,220,5.0,5.0,100,0.00,,,0.00,Wunderground v.1.15,2013-05-21 13:01:00,
2013-05-21 09:06:00,65.2,65.2,29.93,WSW,245,0.0,5.0,100,0.00,,,0.00,Wunderground v.1.15,2013-05-21 13:06:00,
2013-05-21 09:11:00,65.8,65.8,29.93,WSW,241,5.0,5.0,100,0.00,,,0.00,Wunderground v.1.15,2013-05-21 13:11:00,
2013-05-21 09:16:00,66.0,66.0,29.93,SW,229,6.0,6.0,100,0.00,,,0.00,Wunderground v.1.15,2013-05-21 13:16:00,
2013-05-21 09:21:00,66.6,66.6,29.94,SW,236,1.0,6.0,100,0.00,,,0.00,Wunderground v.1.15,2013-05-21 13:21:00,
2013-05-21 09:26:00,67.1,67.1,29.94,SW,224,0.0,8.0,100,0.00,,,0.00,Wunderground v.1.15,2013-05-21 13:26:00,
2013-05-21 09:31:00,67.4,67.4,29.94,SW,234,7.0,7.0,100,0.00,,,0.00,Wunderground v.1.15,2013-05-21 13:31:00,
2013-05-21 09:36:00,67.9,67.9,29.93,SW,232,0.0,7.0,100,0.00,,,0.00,Wunderground v.1.15,2013-05-21 13:36:00,
2013-05-21 09:41:00,68.3,68.0,29.93,WSW,247,5.0,5.0,99,0.00,,,0.00,Wunderground v.1.15,2013-05-21 13:41:00,
2013-05-21 09:46:00,68.6,68.3,29.93,SE,131,0.0,7.0,99,0.00,,,0.00,Wunderground v.1.15,2013-05-21 13:46:00,
2013-05-21 09:51:00,69.3,68.4,29.93,SSW,202,0.0,1.0,97,0.00,,,0.00,Wunderground v.1.15,2013-05-21 13:51:00,
2013-05-21 09:56:00,69.9,68.7,29.93,SW,234,3.0,5.0,96,0.00,,,0.00,Wunderground v.1.15,2013-05-21 13:56:00,
2013-05-21 10:01:00,70.4,68.3,29.93,SSW,213,4.0,4.0,93,0.00,,,0.00,Wunderground v.1.15,2013-05-21 14:01:00,
2013-05-21 10:06:00,70.9,67.8,29.93,SSW,209,0.0,5.0,90,0.00,,,0.00,Wunderground v.1.15,2013-05-21 14:06:00,
2013-05-21 10:11:00,71.5,67.4,29.93,SW,217,1.0,5.0,87,0.00,,,0.00,Wunderground v.1.15,2013-05-21 14:11:00,
2013-05-21 10:16:00,72.0,67.2,29.93,SSW,202,2.0,6.0,85,0.00,,,0.00,Wunderground v.1.15,2013-05-21 14:16:00,
2013-05-21 10:21:00,72.1,66.3,29.92,SSW,207,7.0,9.0,82,0.00,,,0.00,Wunderground v.1.15,2013-05-21 14:21:00,
2013-05-21 10:26:00,73.0,66.8,29.92,West,267,1.0,9.0,81,0.00,,,0.00,Wunderground v.1.15,2013-05-21 14:26:00,
2013-05-21 10:31:00,73.9,67.0,29.92,SSW,193,3.0,5.0,79,0.00,,,0.00,Wunderground v.1.15,2013-05-21 14:31:00,
2013-05-21 10:36:00,74.0,66.7,29.92,SSW,205,0.0,8.0,78,0.00,,,0.00,Wunderground v.1.15,2013-05-21 14:36:00,
2013-05-21 10:41:00,74.9,67.6,29.92,WSW,252,0.0,2.0,78,0.00,,,0.00,Wunderground v.1.15,2013-05-21 14:41:00,
2013-05-21 10:46:00,75.8,67.3,29.92,SSW,202,4.0,5.0,75,0.00,,,0.00,Wunderground v.1.15,2013-05-21 14:46:00,
2013-05-21 10:51:00,75.8,66.9,29.91,SSW,202,7.0,7.0,74,0.00,,,0.00,Wunderground v.1.15,2013-05-21 14:51:00,
2013-05-21 10:56:00,76.0,67.1,29.91,SW,223,7.0,7.0,74,0.00,,,0.00,Wunderground v.1.15,2013-05-21 14:56:00,
2013-05-21 11:01:00,76.5,67.6,29.91,SW,218,4.0,8.0,74,0.00,,,0.00,Wunderground v.1.15,2013-05-21 15:01:00,
2013-05-21 11:06:00,77.0,67.3,29.91,South,184,4.0,8.0,72,0.00,,,0.00,Wunderground v.1.15,2013-05-21 15:06:00,
2013-05-21 11:11:00,77.2,67.1,29.91,SSW,199,7.0,7.0,71,0.00,,,0.00,Wunderground v.1.15,2013-05-21 15:11:00,
2013-05-21 11:16:00,77.0,67.3,29.91,South,173,0.0,8.0,72,0.00,,,0.00,Wunderground v.1.15,2013-05-21 15:16:00,
2013-05-21 11:21:00,77.2,67.5,29.91,West,259,8.0,9.0,72,0.00,,,0.00,Wunderground v.1.15,2013-05-21 15:21:00,
2013-05-21 11:26:00,77.7,67.5,29.91,SW,236,2.0,9.0,71,0.00,,,0.00,Wunderground v.1.15,2013-05-21 15:26:00,
2013-05-21 11:31:00,78.1,67.1,29.91,SW,224,10.0,10.0,69,0.00,,,0.00,Wunderground v.1.15,2013-05-21 15:31:00,
2013-05-21 11:36:00,78.1,67.1,29.91,SW,236,1.0,12.0,69,0.00,,,0.00,Wunderground v.1.15,2013-05-21 15:36:00,
2013-05-21 11:41:00,78.5,67.5,29.91,SE,134,3.0,7.0,69,0.00,,,0.00,Wunderground v.1.15,2013-05-21 15:41:00,
2013-05-21 11:46:00,78.6,67.6,29.91,SW,216,11.0,13.0,69,0.00,,,0.00,Wunderground v.1.15,2013-05-21 15:46:00,
2013-05-21 11:51:00,78.6,66.7,29.90,SW,233,14.0,14.0,67,0.00,,,0.00,Wunderground v.1.15,2013-05-21 15:51:00,
2013-05-21 11:56:00,78.8,66.5,29.90,WSW,240,3.0,14.0,66,0.00,,,0.00,Wunderground v.1.15,2013-05-21 15:56:00,
2013-05-21 12:01:00,79.0,65.3,29.90,SW,216,14.0,15.0,63,0.00,,,0.00,Wunderground v.1.15,2013-05-21 16:01:00,
2013-05-21 12:06:00,79.0,65.8,29.89,SSW,207,4.0,18.0,64,0.00,,,0.00,Wunderground v.1.15,2013-05-21 16:06:00,
2013-05-21 12:11:00,79.6,66.8,29.89,SSW,194,3.0,10.0,65,0.00,,,0.00,Wunderground v.1.15,2013-05-21 16:11:00,
2013-05-21 12:16:00,79.6,66.3,29.89,WSW,242,9.0,15.0,64,0.00,,,0.00,Wunderground v.1.15,2013-05-21 16:16:00,
2013-05-21 12:21:00,79.6,66.8,29.89,South,178,3.0,13.0,65,0.00,,,0.00,Wunderground v.1.15,2013-05-21 16:21:00,
2013-05-21 12:26:00,79.4,66.6,29.89,SW,231,10.0,16.0,65,0.00,,,0.00,Wunderground v.1.15,2013-05-21 16:26:00,
2013-05-21 12:31:00,79.4,66.6,29.89,SSW,197,7.0,14.0,65,0.00,,,0.00,Wunderground v.1.15,2013-05-21 16:31:00,
2013-05-21 12:36:00,79.6,66.3,29.89,WSW,249,5.0,15.0,64,0.00,,,0.00,Wunderground v.1.15,2013-05-21 16:36:00,
2013-05-21 12:41:00,80.1,67.3,29.89,SSW,207,7.0,12.0,65,0.00,,,0.00,Wunderground v.1.15,2013-05-21 16:41:00,
2013-05-21 12:46:00,79.9,66.2,29.89,SSW,193,9.0,14.0,63,0.00,,,0.00,Wunderground v.1.15,2013-05-21 16:46:00,
2013-05-21 12:51:00,80.1,66.8,29.88,SSW,198,12.0,12.0,64,0.00,,,0.00,Wunderground v.1.15,2013-05-21 16:51:00,
2013-05-21 12:56:00,80.5,67.2,29.88,SSW,195,10.0,14.0,64,0.00,,,0.00,Wunderground v.1.15,2013-05-21 16:56:00,
2013-05-21 13:01:00,80.5,66.3,29.88,WSW,241,12.0,14.0,62,0.00,,,0.00,Wunderground v.1.15,2013-05-21 17:01:00,
2013-05-21 13:06:00,80.3,67.0,29.88,SSW,198,9.0,15.0,64,0.00,,,0.00,Wunderground v.1.15,2013-05-21 17:06:00,
2013-05-21 13:11:00,80.3,66.6,29.88,SW,235,9.0,14.0,63,0.00,,,0.00,Wunderground v.1.15,2013-05-21 17:11:00,
2013-05-21 13:16:00,80.5,66.7,29.88,WSW,242,8.0,14.0,63,0.00,,,0.00,Wunderground v.1.15,2013-05-21 17:16:00,
2013-05-21 13:21:00,80.7,66.9,29.88,South,191,6.0,11.0,63,0.00,,,0.00,Wunderground v.1.15,2013-05-21 17:21:00,
2013-05-21 13:26:00,80.9,66.7,29.88,SW,236,5.0,17.0,62,0.00,,,0.00,Wunderground v.1.15,2013-05-21 17:26:00,
2013-05-21 13:31:00,81.1,66.8,29.88,WSW,237,5.0,12.0,62,0.00,,,0.00,Wunderground v.1.15,2013-05-21 17:31:00,
2013-05-21 13:36:00,81.2,66.0,29.88,WSW,239,5.0,17.0,60,0.00,,,0.00,Wunderground v.1.15,2013-05-21 17:36:00,
2013-05-21 13:41:00,81.6,66.8,29.88,WNW,284,5.0,10.0,61,0.00,,,0.00,Wunderground v.1.15,2013-05-21 17:41:00,
2013-05-21 13:46:00,81.4,67.1,29.88,SE,126,0.0,16.0,62,0.00,,,0.00,Wunderground v.1.15,2013-05-21 17:46:00,
2013-05-21 13:51:00,81.1,67.8,29.87,SW,223,3.0,10.0,64,0.00,,,0.00,Wunderground v.1.15,2013-05-21 17:51:00,
2013-05-21 13:56:00,80.5,67.2,29.87,SSW,212,15.0,15.0,64,0.00,,,0.00,Wunderground v.1.15,2013-05-21 17:56:00,
2013-05-21 14:01:00,79.9,67.5,29.87,SW,236,11.0,14.0,66,0.00,,,0.00,Wunderground v.1.15,2013-05-21 18:01:00,
2013-05-21 14:06:00,80.3,67.9,29.87,SW,215,10.0,15.0,66,0.00,,,0.00,Wunderground v.1.15,2013-05-21 18:06:00,
2013-05-21 14:11:00,80.3,67.9,29.87,SW,225,8.0,9.0,66,0.00,,,0.00,Wunderground v.1.15,2013-05-21 18:11:00,
2013-05-21 14:16:00,80.5,67.6,29.87,SE,141,4.0,14.0,65,0.00,,,0.00,Wunderground v.1.15,2013-05-21 18:16:00,
2013-05-21 14:21:00,80.5,67.6,29.87,SW,221,4.0,10.0,65,0.00,,,0.00,Wunderground v.1.15,2013-05-21 18:21:00,
2013-05-21 14:26:00,80.3,67.5,29.87,WSW,247,8.0,15.0,65,0.00,,,0.00,Wunderground v.1.15,2013-05-21 18:26:00,
2013-05-21 14:31:00,80.1,67.7,29.87,SSE,153,6.0,8.0,66,0.00,,,0.00,Wunderground v.1.15,2013-05-21 18:31:00,
2013-05-21 14:36:00,80.3,67.5,29.86,SSE,161,5.0,16.0,65,0.00,,,0.00,Wunderground v.1.15,2013-05-21 18:36:00,
2013-05-21 14:41:00,80.1,67.3,29.86,South,169,4.0,17.0,65,0.00,,,0.00,Wunderground v.1.15,2013-05-21 18:41:00,
2013-05-21 14:47:00,80.1,67.3,29.86,SW,236,4.0,17.0,65,0.00,,,0.00,Wunderground v.1.15,2013-05-21 18:47:00,
2013-05-21 14:52:00,80.1,67.7,29.86,South,180,9.0,12.0,66,0.00,,,0.00,Wunderground v.1.15,2013-05-21 18:52:00,
2013-05-21 14:57:00,80.3,67.9,29.86,SSW,200,12.0,14.0,66,0.00,,,0.00,Wunderground v.1.15,2013-05-21 18:57:00,
2013-05-21 15:02:00,79.9,67.5,29.86,SW,230,2.0,9.0,66,0.00,,,0.00,Wunderground v.1.15,2013-05-21 19:02:00,
2013-05-21 15:07:00,80.5,67.6,29.86,WSW,242,12.0,14.0,65,0.00,,,0.00,Wunderground v.1.15,2013-05-21 19:07:00,
2013-05-21 15:12:00,80.3,67.0,29.86,SE,128,0.0,11.0,64,0.00,,,0.00,Wunderground v.1.15,2013-05-21 19:12:00,
2013-05-21 15:17:00,80.9,68.0,29.86,SSW,200,5.0,11.0,65,0.00,,,0.00,Wunderground v.1.15,2013-05-21 19:17:00,
2013-05-21 15:22:00,80.9,67.1,29.86,WSW,248,3.0,14.0,63,0.00,,,0.00,Wunderground v.1.15,2013-05-21 19:22:00,
2013-05-21 15:27:00,80.7,66.9,29.86,SSW,199,9.0,15.0,63,0.00,,,0.00,Wunderground v.1.15,2013-05-21 19:27:00,
2013-05-21 15:32:00,80.9,67.1,29.86,WSW,247,7.0,11.0,63,0.00,,,0.00,Wunderground v.1.15,2013-05-21 19:32:00,
2013-05-21 15:37:00,81.1,67.3,29.85,West,261,7.0,14.0,63,0.00,,,0.00,Wunderground v.1.15,2013-05-21 19:37:00,
2013-05-21 15:42:00,80.7,67.4,29.85,SW,217,16.0,16.0,64,0.00,,,0.00,Wunderground v.1.15,2013-05-21 19:42:00,
2013-05-21 15:47:00,80.5,66.7,29.85,WSW,246,11.0,16.0,63,0.00,,,0.00,Wunderground v.1.15,2013-05-21 19:47:00,
2013-05-21 15:52:00,80.3,67.5,29.85,WSW,244,9.0,14.0,65,0.00,,,0.00,Wunderground v.1.15,2013-05-21 19:52:00,
2013-05-21 15:57:00,80.7,66.9,29.85,SW,234,3.0,18.0,63,0.00,,,0.00,Wunderground v.1.15,2013-05-21 19:57:00,
2013-05-21 16:02:00,80.3,67.0,29.85,WSW,245,6.0,15.0,64,0.00,,,0.00,Wunderground v.1.15,2013-05-21 20:02:00,
2013-05-21 16:07:00,80.1,66.8,29.84,SW,224,7.0,19.0,64,0.00,,,0.00,Wunderground v.1.15,2013-05-21 20:07:00,
2013-05-21 16:12:00,80.3,66.6,29.84,SE,135,0.0,14.0,63,0.00,,,0.00,Wunderground v.1.15,2013-05-21 20:12:00,
2013-05-21 16:17:00,80.3,66.6,29.84,SSW,207,7.0,16.0,63,0.00,,,0.00,Wunderground v.1.15,2013-05-21 20:17:00,
2013-05-21 16:22:00,79.9,66.6,29.84,SW,228,13.0,15.0,64,0.00,,,0.00,Wunderground v.1.15,2013-05-21 20:22:00,
2013-05-21 16:27:00,79.4,66.6,29.84,SSW,196,4.0,20.0,65,0.00,,,0.00,Wunderground v.1.15,2013-05-21 20:27:00,
2013-05-21 16:32:00,79.2,66.4,29.84,SW,224,11.0,16.0,65,0.00,,,0.00,Wunderground v.1.15,2013-05-21 20:32:00,
2013-05-21 16:37:00,79.0,66.2,29.85,SW,217,5.0,16.0,65,0.00,,,0.00,Wunderground v.1.15,2013-05-21 20:37:00,
2013-05-21 16:42:00,79.0,66.2,29.85,SW,214,7.0,17.0,65,0.00,,,0.00,Wunderground v.1.15,2013-05-21 20:42:00,
2013-05-21 16:47:00,78.6,66.3,29.85,NNW,342,3.0,17.0,66,0.00,,,0.00,Wunderground v.1.15,2013-05-21 20:47:00,
2013-05-21 16:52:00,78.5,66.6,29.84,SSW,195,7.0,17.0,67,0.00,,,0.00,Wunderground v.1.15,2013-05-21 20:52:00,
2013-05-21 16:57:00,78.6,66.7,29.84,SSW,205,4.0,17.0,67,0.00,,,0.00,Wunderground v.1.15,2013-05-21 20:57:00,
2013-05-21 17:02:00,78.3,66.4,29.84,WSW,247,11.0,11.0,67,0.00,,,0.00,Wunderground v.1.15,2013-05-21 21:02:00,
2013-05-21 17:07:00,78.1,66.2,29.84,SSW,213,5.0,18.0,67,0.00,,,0.00,Wunderground v.1.15,2013-05-21 21:07:00,
2013-05-21 17:12:00,78.1,66.2,29.84,SSW,192,7.0,15.0,67,0.00,,,0.00,Wunderground v.1.15,2013-05-21 21:12:00,
2013-05-21 17:17:00,77.7,66.3,29.84,SSW,207,4.0,15.0,68,0.00,,,0.00,Wunderground v.1.15,2013-05-21 21:17:00,
2013-05-21 17:22:00,77.9,66.5,29.84,SW,217,6.0,12.0,68,0.00,,,0.00,Wunderground v.1.15,2013-05-21 21:22:00,
2013-05-21 17:27:00,77.9,66.5,29.84,SSW,201,11.0,16.0,68,0.00,,,0.00,Wunderground v.1.15,2013-05-21 21:27:00,
2013-05-21 17:32:00,77.7,66.3,29.84,SW,225,4.0,12.0,68,0.00,,,0.00,Wunderground v.1.15,2013-05-21 21:32:00,
2013-05-21 17:37:00,77.7,66.7,29.84,SSW,210,1.0,12.0,69,0.00,,,0.00,Wunderground v.1.15,2013-05-21 21:37:00,
2013-05-21 17:42:00,77.6,66.2,29.84,SW,236,5.0,14.0,68,0.00,,,0.00,Wunderground v.1.15,2013-05-21 21:42:00,
2013-05-21 17:47:00,77.4,66.4,29.84,SW,232,2.0,14.0,69,0.00,,,0.00,Wunderground v.1.15,2013-05-21 21:47:00,
2013-05-21 17:52:00,77.2,66.2,29.83,SW,232,4.0,10.0,69,0.00,,,0.00,Wunderground v.1.15,2013-05-21 21:52:00,
2013-05-21 17:58:00,77.2,66.2,29.83,SSW,213,3.0,11.0,69,0.00,,,0.00,Wunderground v.1.15,2013-05-21 21:58:00,
2013-05-21 18:03:00,77.4,66.0,29.83,WSW,237,7.0,13.0,68,0.00,,,0.00,Wunderground v.1.15,2013-05-21 22:03:00,
2013-05-21 18:08:00,77.0,66.0,29.86,SSW,196,7.0,14.0,69,0.00,,,0.00,Wunderground v.1.15,2013-05-21 22:08:00,
2013-05-21 18:13:00,77.0,66.5,29.86,SW,231,0.0,6.0,70,0.00,,,0.00,Wunderground v.1.15,2013-05-21 22:13:00,
2013-05-21 18:18:00,76.8,66.3,29.86,SSW,213,0.0,11.0,70,0.00,,,0.00,Wunderground v.1.15,2013-05-21 22:18:00,
2013-05-21 18:23:00,76.5,66.0,29.86,South,183,3.0,7.0,70,0.00,,,0.00,Wunderground v.1.15,2013-05-21 22:23:00,
2013-05-21 18:28:00,76.5,66.4,29.86,SSW,203,0.0,7.0,71,0.00,,,0.00,Wunderground v.1.15,2013-05-21 22:28:00,
2013-05-21 18:33:00,76.5,66.4,29.86,SSW,196,7.0,7.0,71,0.00,,,0.00,Wunderground v.1.15,2013-05-21 22:33:00,
2013-05-21 18:38:00,76.3,66.2,29.86,SSW,211,0.0,9.0,71,0.00,,,0.00,Wunderground v.1.15,2013-05-21 22:38:00,
2013-05-21 18:43:00,76.0,65.9,29.86,SSE,157,6.0,6.0,71,0.00,,,0.00,Wunderground v.1.15,2013-05-21 22:43:00,
2013-05-21 18:48:00,75.6,65.5,29.86,South,188,0.0,7.0,71,0.00,,,0.00,Wunderground v.1.15,2013-05-21 22:48:00,
2013-05-21 18:53:00,75.3,65.2,29.87,SSW,195,0.0,8.0,71,0.00,,,0.00,Wunderground v.1.15,2013-05-21 22:53:00,
2013-05-21 18:58:00,75.1,65.1,29.87,SSW,198,5.0,9.0,71,0.00,,,0.00,Wunderground v.1.15,2013-05-21 22:58:00,
2013-05-21 19:03:00,74.7,65.1,29.87,SW,236,0.0,8.0,72,0.00,,,0.00,Wunderground v.1.15,2013-05-21 23:03:00,
2013-05-21 19:08:00,74.4,64.8,29.87,SSW,209,7.0,10.0,72,0.00,,,0.00,Wunderground v.1.15,2013-05-21 23:08:00,
2013-05-21 19:13:00,74.0,64.8,29.87,SW,218,6.0,6.0,73,0.00,,,0.00,Wunderground v.1.15,2013-05-21 23:13:00,
2013-05-21 19:18:00,73.7,64.5,29.87,SSW,213,5.0,10.0,73,0.00,,,0.00,Wunderground v.1.15,2013-05-21 23:18:00,
2013-05-21 19:23:00,73.5,64.7,29.87,SW,236,8.0,8.0,74,0.00,,,0.00,Wunderground v.1.15,2013-05-21 23:23:00,
2013-05-21 19:28:00,73.2,64.8,29.87,SW,234,0.0,8.0,75,0.00,,,0.00,Wunderground v.1.15,2013-05-21 23:28:00,
2013-05-21 19:33:00,73.0,64.6,29.87,SW,230,0.0,3.0,75,0.00,,,0.00,Wunderground v.1.15,2013-05-21 23:33:00,
2013-05-21 19:38:00,72.7,64.3,29.88,WSW,238,0.0,4.0,75,0.00,,,0.00,Wunderground v.1.15,2013-05-21 23:38:00,
2013-05-21 19:43:00,72.5,64.5,29.88,WSW,238,0.0,0.0,76,0.00,,,0.00,Wunderground v.1.15,2013-05-21 23:43:00,
2013-05-21 19:48:00,72.3,64.3,29.88,WSW,238,0.0,0.0,76,0.00,,,0.00,Wunderground v.1.15,2013-05-21 23:48:00,
2013-05-21 19:53:00,72.0,64.4,29.88,WSW,237,0.0,0.0,77,0.00,,,0.00,Wunderground v.1.15,2013-05-21 23:53:00,
2013-05-21 19:58:00,71.6,64.4,29.88,East,101,0.0,0.0,78,0.00,,,0.00,Wunderground v.1.15,2013-05-21 23:58:00,
2013-05-21 20:03:00,71.5,64.3,29.88,ESE,114,0.0,2.0,78,0.00,,,0.00,Wunderground v.1.15,2013-05-22 00:03:00,
2013-05-21 20:08:00,71.3,64.1,29.88,East,101,0.0,2.0,78,0.00,,,0.00,Wunderground v.1.15,2013-05-22 00:08:00,
2013-05-21 20:13:00,71.1,64.3,29.88,East,101,0.0,0.0,79,0.00,,,0.00,Wunderground v.1.15,2013-05-22 00:13:00,
2013-05-21 20:18:00,70.9,64.1,29.88,East,101,0.0,0.0,79,0.00,,,0.00,Wunderground v.1.15,2013-05-22 00:18:00,
2013-05-21 20:23:00,70.8,64.0,29.89,ENE,74,0.0,0.0,79,0.00,,,0.00,Wunderground v.1.15,2013-05-22 00:23:00,
2013-05-21 20:28:00,70.6,64.1,29.89,ENE,67,0.0,1.0,80,0.00,,,0.00,Wunderground v.1.15,2013-05-22 00:28:00,
2013-05-21 20:33:00,70.3,63.8,29.89,ENE,67,0.0,0.0,80,0.00,,,0.00,Wunderground v.1.15,2013-05-22 00:33:00,
2013-05-21 20:38:00,70.1,64.0,29.89,ENE,67,0.0,0.0,81,0.00,,,0.00,Wunderground v.1.15,2013-05-22 00:38:00,
2013-05-21 20:43:00,69.9,63.8,29.89,ENE,67,0.0,0.0,81,0.00,,,0.00,Wunderground v.1.15,2013-05-22 00:43:00,
2013-05-21 20:48:00,69.6,63.9,29.89,ENE,67,0.0,0.0,82,0.00,,,0.00,Wunderground v.1.15,2013-05-22 00:48:00,
2013-05-21 20:53:00,69.6,63.9,29.89,ENE,67,0.0,0.0,82,0.00,,,0.00,Wunderground v.1.15,2013-05-22 00:53:00,
2013-05-21 20:58:00,69.4,64.0,29.89,ENE,67,0.0,0.0,83,0.00,,,0.00,Wunderground v.1.15,2013-05-22 00:58:00,
2013-05-21 21:04:00,69.3,63.9,29.89,ENE,68,0.0,0.0,83,0.00,,,0.00,Wunderground v.1.15,2013-05-22 01:04:00,
2013-05-21 21:09:00,69.1,63.7,29.88,SE,130,0.0,1.0,83,0.00,,,0.00,Wunderground v.1.15,2013-05-22 01:09:00,
2013-05-21 21:14:00,68.8,63.4,29.88,SE,127,0.0,5.0,83,0.00,,,0.00,Wunderground v.1.15,2013-05-22 01:14:00,
2013-05-21 21:19:00,68.6,63.2,29.88,ESE,119,0.0,5.0,83,0.00,,,0.00,Wunderground v.1.15,2013-05-22 01:19:00,
2013-05-21 21:24:00,68.4,63.0,29.87,NE,44,0.0,2.0,83,0.00,,,0.00,Wunderground v.1.15,2013-05-22 01:24:00,
2013-05-21 21:29:00,68.3,63.3,29.87,NE,51,0.0,2.0,84,0.00,,,0.00,Wunderground v.1.15,2013-05-22 01:29:00,
2013-05-21 21:34:00,67.9,62.9,29.87,SE,146,4.0,4.0,84,0.00,,,0.00,Wunderground v.1.15,2013-05-22 01:34:00,
2013-05-21 21:39:00,67.8,63.1,29.87,SE,145,0.0,4.0,85,0.00,,,0.00,Wunderground v.1.15,2013-05-22 01:39:00,
2013-05-21 21:44:00,67.3,62.6,29.87,SSE,160,0.0,4.0,85,0.00,,,0.00,Wunderground v.1.15,2013-05-22 01:44:00,
2013-05-21 21:49:00,66.9,62.6,29.87,ESE,113,0.0,4.0,86,0.00,,,0.00,Wunderground v.1.15,2013-05-22 01:49:00,
2013-05-21 21:54:00,66.8,62.5,29.87,ESE,117,0.0,0.0,86,0.00,,,0.00,Wunderground v.1.15,2013-05-22 01:54:00,
2013-05-21 21:59:00,66.6,62.6,29.87,ESE,117,0.0,0.0,87,0.00,,,0.00,Wunderground v.1.15,2013-05-22 01:59:00,
2013-05-21 22:04:00,66.3,62.3,29.87,NE,38,0.0,2.0,87,0.00,,,0.00,Wunderground v.1.15,2013-05-22 02:04:00,
2013-05-21 22:09:00,65.8,61.8,29.89,ESE,122,0.0,5.0,87,0.00,,,0.00,Wunderground v.1.15,2013-05-22 02:09:00,
2013-05-21 22:14:00,65.5,61.9,29.89,ESE,102,0.0,0.0,88,0.00,,,0.00,Wunderground v.1.15,2013-05-22 02:14:00,
2013-05-21 22:19:00,65.3,61.7,29.89,ESE,102,0.0,0.0,88,0.00,,,0.00,Wunderground v.1.15,2013-05-22 02:19:00,
2013-05-21 22:24:00,65.0,61.7,29.89,ENE,59,0.0,8.0,89,0.00,,,0.00,Wunderground v.1.15,2013-05-22 02:24:00,
2013-05-21 22:29:00,64.8,61.5,29.89,ESE,115,0.0,8.0,89,0.00,,,0.00,Wunderground v.1.15,2013-05-22 02:29:00,
2013-05-21 22:34:00,64.5,61.2,29.89,ENE,57,0.0,4.0,89,0.00,,,0.00,Wunderground v.1.15,2013-05-22 02:34:00,
2013-05-21 22:39:00,64.5,61.5,29.88,NE,53,0.0,4.0,90,0.00,,,0.00,Wunderground v.1.15,2013-05-22 02:39:00,
2013-05-21 22:44:00,64.3,61.3,29.88,ENE,77,0.0,2.0,90,0.00,,,0.00,Wunderground v.1.15,2013-05-22 02:44:00,
2013-05-21 22:49:00,64.2,61.5,29.88,ENE,59,0.0,2.0,91,0.00,,,0.00,Wunderground v.1.15,2013-05-22 02:49:00,
2013-05-21 22:54:00,64.0,61.3,29.87,ENE,68,0.0,0.0,91,0.00,,,0.00,Wunderground v.1.15,2013-05-22 02:54:00,
2013-05-21 22:59:00,63.9,61.2,29.87,NE,44,0.0,7.0,91,0.00,,,0.00,Wunderground v.1.15,2013-05-22 02:59:00,
2013-05-21 23:04:00,63.7,61.0,29.87,ENE,69,0.0,7.0,91,0.00,,,0.00,Wunderground v.1.15,2013-05-22 03:04:00,
2013-05-21 23:09:00,63.5,60.8,29.87,ENE,62,3.0,10.0,91,0.00,,,0.00,Wunderground v.1.15,2013-05-22 03:09:00,
2013-05-21 23:14:00,63.2,60.8,29.87,ENE,62,0.0,6.0,92,0.00,,,0.00,Wunderground v.1.15,2013-05-22 03:14:00,
2013-05-21 23:19:00,63.1,60.7,29.87,NE,49,0.0,7.0,92,0.00,,,0.00,Wunderground v.1.15,2013-05-22 03:19:00,
2013-05-21 23:24:00,62.6,60.2,29.89,ESE,103,3.0,8.0,92,0.00,,,0.00,Wunderground v.1.15,2013-05-22 03:24:00,
2013-05-21 23:29:00,62.1,59.7,29.89,ENE,67,0.0,8.0,92,0.00,,,0.00,Wunderground v.1.15,2013-05-22 03:29:00,
2013-05-21 23:34:00,61.6,59.6,29.89,East,85,7.0,8.0,93,0.00,,,0.00,Wunderground v.1.15,2013-05-22 03:34:00,
2013-05-21 23:39:00,61.3,59.3,29.89,ENE,72,3.0,9.0,93,0.00,,,0.00,Wunderground v.1.15,2013-05-22 03:39:00,
2013-05-21 23:44:00,61.2,59.5,29.89,NNE,13,0.0,8.0,94,0.00,,,0.00,Wunderground v.1.15,2013-05-22 03:44:00,
2013-05-21 23:49:00,61.0,59.6,29.89,ENE,74,0.0,9.0,95,0.00,,,0.00,Wunderground v.1.15,2013-05-22 03:49:00,
2013-05-21 23:54:00,61.0,59.6,29.90,NE,51,0.0,7.0,95,0.00,,,0.00,Wunderground v.1.15,2013-05-22 03:54:00,
2013-05-21 23:59:00,60.9,59.5,29.90,ENE,57,0.0,7.0,95,0.00,,,0.00,Wunderground v.1.15,2013-05-22 03:59:00,